Regional Weather Roundup
Issued by NWS

Home | Current Version | Previous Version | Text Only | Print | Product List | Glossary Off
Versions: 1 2 3 4 5 6 7 8 9 10 11 12 13 14 15 16 17 18 19 20 21 22 23 24 25 26 27 28 29 30 31 32 33 34 35 36 37 38 39 40 41 42 43 44 45 46 47 48 49 50

000
ASUS43 KMPX 141301
RWRMN
WEATHER ROUNDUP FOR MINNESOTA
NATIONAL WEATHER SERVICE TWIN CITIES/CHANHASSEN MN
700 AM CST SUN FEB 14 2016


NOTE: "FAIR" INDICATES FEW OR NO CLOUDS BELOW 12,000 FEET WITH NO
SIGNIFICANT WEATHER AND/OR OBSTRUCTIONS TO VISIBILITY. N/A MEANS
CURRENT SKY AND/OR WEATHER CONDITIONS ARE NOT AVAILABLE.

MNZ060>063-068>070-141400-
   Twin Cities Metro

CITY           SKY/WX    TMP DP  RH WIND       PRES   REMARKS
TWIN CITIES    CLOUDY    11   1  64 SE16      30.08F WCI  -6
ST PAUL        CLOUDY    12   1  61 SE10      30.11F WCI  -1
CRYSTAL        CLOUDY    12   1  61 SE12      30.06F WCI  -2
BLAINE         FLURRIES  12   3  67 SE10      30.07F WCI  -1
LAKEVILLE      CLOUDY    10   3  72 SE10      30.06F WCI  -3
EDEN PRAIRIE   CLOUDY    12   2  64 E10       30.05F WCI  -1
SOUTH ST PAUL  CLOUDY    12   1  62 SE7       30.09F WCI   2
LAKE ELMO      FLURRIES  12   1  62 SE8       30.09F WCI   1
$$
MNZ001>005-007-008-013>017-022>024-027-028-141400-
   Northwest Minnesota

CITY           SKY/WX    TMP DP  RH WIND       PRES   REMARKS
BEMIDJI        CLOUDY     6   0  74 SE12      29.93F HAZE    WCI  -9
HALLOCK        LGT SNOW  14  10  85 S23       29.85F WCI  -5
ROSEAU         LGT SNOW  10   5  79 S15       29.89F WCI  -6
WARROAD        CLOUDY    10   1  67 S10       29.90F WCI  -3
THIEF RVR FALL CLOUDY    10   7  85 S18       29.89F WCI  -8
CROOKSTON      LGT SNOW  12   9  85 S20G25    29.91F WCI  -6
FOSSTON        LGT SNOW   9   3  78 SE16      29.90F WCI  -9
DETROIT LAKES  LGT SNOW  12   9  85 SE15      29.91F WCI  -4
MOORHEAD       MIX PCPN  12   9  85 S20G28    29.91F WCI  -6
PARK RAPIDS    LGT SNOW   9   2  73 SE13      29.94F WCI  -7
MAHNOMEN       LGT SNOW  11   6  80 S13G21    29.91F WCI  -4
$$
MNZ006-009>011-018-025>026-141400-
   North Central Minnesota

CITY           SKY/WX    TMP DP  RH WIND       PRES   REMARKS
BAUDETTE       CLOUDY     7  -6  55 SE13      29.92F WCI  -9
FLAG ISLAND    FLURRIES   7   0  72 S20       29.91F WCI -13
INTL FALLS     CLOUDY     2 -12  52 SE7       29.99F WCI -11
WASKISH        CLOUDY     9   0  66 SE8       29.95F WCI  -4
BIG FORK       CLOUDY     7  -9  47 S8        29.98F WCI  -6
LONGVILLE      CLOUDY     7  -2  66 SE9G16    29.98F WCI  -7
GRAND RAPIDS   CLOUDY     3  -9  55 SE10      30.00F WCI -12
CRANE LAKE     CLOUDY   -13 -18  77 NW1       30.08F
ORR            CLOUDY    -2 -15  55 CALM      29.99F
COOK           CLOUDY    -2 -15  55 SE3       30.04S
WALKER         CLOUDY     6  -2  69 SE6       29.96F WCI  -4
$$
MNZ012-019>021-037-141400-
   Northeast Minnesota

CITY           SKY/WX    TMP DP  RH WIND       PRES   REMARKS
DULUTH         CLOUDY     2 -11  54 SE12      30.06F WCI -15
ELY            CLOUDY    -8 -13  77 SE7       30.07F WCI -22
HIBBING        CLOUDY    -3 -12  65 SE7       30.04F WCI -16
EVELETH        CLOUDY    -9 -17  70 NE5       30.06F WCI -21
DULUTH HARBOR  CLOUDY     3 -11  51 SE5       30.16F WCI  -6
TWO HARBORS    PTCLDY   -11 -18  70 CALM      30.11F
SILVER BAY     CLEAR    -20 -27  69 CALM      30.12F
GRAND MARAIS     N/A     16   5  62 S14       30.20F WCI   2
G MARAIS ARPRT CLEAR      1  -6  71 S5        30.09F WCI  -8
$$
MNZ029>031-032-039>041-046>048-054>057-064-141400-
   West Central Minnesota

CITY           SKY/WX    TMP DP  RH WIND       PRES   REMARKS
FERGUS FALLS   LGT SNOW  12   9  85 SE17      29.96F WCI  -5
MORRIS         CLOUDY    12   9  85 SE17      29.92F WCI  -5
ALEXANDRIA     LGT SNOW  10   6  84 SE14      29.94F FOG     WCI  -6
ELBOW LAKE     LGT SNOW  12   8  86 E20G26    29.93F WCI  -7
WADENA         LGT SNOW   9   3  78 SE13      29.95F WCI  -7
GLENWOOD       LGT SNOW  10   9  92 SE15      29.96F WCI  -6
APPLETON       LGT SNOW  14  10  85 SE13      29.95F WCI   0
BENSON         LGT SNOW  12   9  85 S10G17    29.96F WCI  -1
ORTONVILLE     LGT SNOW  12  10  92 SE10      29.92S WCI  -1
MADISON        LGT SNOW  16  10  79 SE15      29.94F WCI   1
WILLMAR        LGT SNOW  14  10  85 SE17      29.98F WCI  -3
$$
MNZ033>034-036-042>043-049>051-058-059-141400-
   Central Minnesota

CITY           SKY/WX    TMP DP  RH WIND       PRES   REMARKS
ST CLOUD       CLOUDY    10   0  63 SE12      30.03F WCI  -5
SAUK CENTRE    FLURRIES  10   5  79 SE13      29.98F WCI  -5
PAYNESVILLE    CLOUDY    12   7  81 SE10      29.99F WCI  -1
AITKIN         MIX PCPN   9  -6  52 SE8       30.01F WCI  -4
PINE RIVER     CLOUDY     7   1  78 SE9       30.02F WCI  -7
BRAINERD       LGT SNOW   6   0  76 SE7       30.01F WCI  -6
STAPLES        CLOUDY     9   1  72 SE7       29.97F WCI  -3
LONG PRAIRIE   CLOUDY    10   3  72 SE10      29.98F WCI  -3
LITTLE FALLS   CLOUDY    10   1  67 SE9       30.02F WCI  -2
LITCHFIELD     CLOUDY    12   9  85 SE13G18   30.00F WCI  -3
BUFFALO        CLOUDY    11   2  67 E10       30.05F WCI  -3
MAPLE LAKE     CLOUDY    12   5  73 SE10      30.03F WCI  -2
$$
MNZ037-044-045-052-053-141400-
   East Central Minnesota

CITY           SKY/WX    TMP DP  RH WIND       PRES   REMARKS
PRINCETON      CLOUDY    10   3  72 SE10      30.05F WCI  -3
MORA           LGT SNOW  10  -2  56 SE7       30.08F WCI   0
CAMBRIDGE      LGT SNOW  10   1  67 SE6       30.06F WCI   1
RUSH CITY      CLOUDY     9  -2  60 SE8       30.09F WCI  -3
MOOSE LAKE     CLOUDY     5  -8  56 CALM      30.06F
HINCKLEY       CLOUDY     9  -4  56 SE7       30.08F WCI  -3
CLOQUET        CLOUDY     0 -13  55 E3        30.06F
MCGREGOR       CLOUDY     9  -4  56 SE7       30.04F WCI  -3
$$
MNZ071>073-080-081-089-090-097-098-141400-
   Southwest Minnesota

CITY           SKY/WX    TMP DP  RH WIND       PRES   REMARKS
MONTEVIDEO     LGT SNOW  12  10  92 S13       29.97F WCI  -3
GRANITE FALLS  LGT SNOW  15  11  87 SE12G18   29.97F WCI   1
CANBY          CLOUDY    17  13  82 SE14      29.93S WCI   3
MARSHALL       FLURRIES  14   9  80 S17       29.93F WCI  -3
REDWOOD FALLS  CLOUDY    13  10  88 SE18      29.98F FOG     WCI  -4
OLIVIA         CLOUDY    16  10  79 SE16      29.98F WCI   0
PIPESTONE      LGT SNOW  16   7  67 S12       29.86S WCI   3
WINDOM         LGT SNOW  12  10  92 SE17      29.93F VSB 3/4 WCI  -5
WORTHINGTON    CLOUDY    12   7  79 SE15      29.91F WCI  -4
JACKSON        LGT SNOW  14  10  85 SE15      29.94F WCI  -1
TRACY          LGT SNOW  15  11  85 S14       29.92F WCI   0
SLAYTON        LGT SNOW  12  11  95 SE17      29.89F WCI  -5
$$
MNZ065>067-074>077-082>085-091>093-141400-
   South Central Minnesota

CITY           SKY/WX    TMP DP  RH WIND       PRES   REMARKS
MANKATO        CLOUDY    14   9  79 SE17      30.02F WCI  -3
NEW ULM        CLOUDY    12   9  85 SE17      29.99F WCI  -5
ST JAMES       LGT SNOW  16  12  86 SE13      30.00F WCI   2
FAIRMONT       CLOUDY    14   9  79 SE17      29.97F VSB 1   WCI  -3
GLENCOE        FLURRIES  14  10  84 SE12      30.02F WCI   1
FARIBAULT      CLOUDY    12   7  79 SE15      30.05F WCI  -4
OWATONNA       CLOUDY    12   7  79 SE20      30.02F WCI  -6
WASECA         CLOUDY    14  10  85 SE22G29   30.03F WCI  -4
ALBERT LEA     LGT SNOW  12  10  92 SE17G25   30.01F WCI  -5
$$
MNZ078>079-086>088-094>096-141400-
   Southeast Minnesota

CITY           SKY/WX    TMP DP  RH WIND       PRES   REMARKS
ROCHESTER      CLOUDY     9   4  80 SE20      30.05F WCI -10
RED WING       CLOUDY    12   0  57 SE12      30.12F WCI  -2
STANTON        CLOUDY    13   5  69 SE7       30.06F WCI   3
DODGE CENTER   CLOUDY    10   7  85 SE18      30.03F WCI  -8
WINONA         CLOUDY    12   3  67 SE9       30.17F WCI   0
AUSTIN         FLURRIES  12   9  85 SE13G18   30.04F WCI  -3
PRESTON        CLOUDY     9   4  80 SE14      30.08F WCI  -7
$$
ABBREVIATIONS USED IN REMARKS
   TC - TEMPERATURES IN CELSIUS
  WCI - WIND CHILL INDEX
   HX - HEAT INDEX
  VSB - VISIBILITY
$$



USA.gov is the U.S. government's official web portal to all federal, state and local government web resources and services.